[[{"header":{"parameterUnit":"m.s-1","parameterCategory":1,"la1":30.2991,"la2":30.254,"lo1":-89.0895,"lo2":-89.0444,"dy":0.0017,"dx":0.0017,"nx":28,"ny":28,"refTime":"2024-07-31T21:00:00:Z","depth":0,"parameterNumber":2,"parameterNumberName":"U-component_of_WINDS"},"data":[0,0,0,0,0,0,0,0,0,0,0,0,0,0,0,0,0,0,0,0,0,0,0,0,0,0,0,0,0,0,0,0,0,0,0,0,0,0,0,0,0,0,0,0,0,0,0,0,0,0,0,0,0,0,0,0,0,0,1.5146,1.5148,0,1.5299,1.5301,1.5303,1.5343,1.5342,1.5341,1.534,1.5499,1.5503,1.5508,0,0,0,0,0,0,0,0,0,0,0,0,0,1.4888,1.4893,1.5146,1.5148,1.515,1.5299,1.5301,1.5303,1.5343,1.5342,1.5341,1.534,1.5497,1.5503,1.5509,0,0,0,0,0,0,0,0,0,0,0,0,0,1.5017,1.4894,1.5146,1.5188,1.5193,1.5299,1.5301,1.5304,1.5344,1.5342,1.5341,1.5339,1.5495,1.5502,1.551,1.5585,0,0,1.5533,1.5536,0,0,0,0,0,0,0,0,1.5009,1.5026,1.518,1.5185,1.5191,1.5301,1.5268,1.5398,1.5344,1.5286,1.534,1.5339,1.5434,1.5446,1.5478,1.5592,1.5599,1.5534,1.5538,1.5542,1.5544,0,0,0,0,0,0,0,1.5001,1.502,1.5207,1.5182,1.5189,1.5199,1.5216,1.5293,1.5366,1.5291,1.5295,1.5312,1.5437,1.5471,1.5482,1.5601,1.5534,1.554,1.5545,1.5548,1.5782,1.5783,0,0,0,0,0,0,1.4984,1.5012,1.5202,1.5211,1.5095,1.5205,1.5224,1.5267,1.5365,1.5379,1.5313,1.5313,1.5458,1.5473,1.5488,1.558,1.5542,1.5549,1.5553,1.578,1.5782,1.5784,0,0,0,0,0,0,1.4979,1.5001,1.5196,1.5113,1.5138,1.5211,1.5259,1.5271,1.5305,1.5382,1.5395,1.5334,1.5458,1.5477,1.556,1.5586,1.5552,1.5559,1.5778,1.5781,1.5783,1.5766,0,0,0,0,0,0,1.4971,1.4999,1.5028,1.5113,1.5143,1.5265,1.5261,1.5275,1.5318,1.5319,1.5405,1.5418,1.5458,1.5548,1.5567,1.5596,1.5565,1.5776,1.5779,1.5782,1.5765,1.5768,1.5771,0,0,0,0,0,1.4962,1.5018,1.5029,1.5052,1.5181,1.5266,1.5283,1.5328,1.532,1.5349,1.5399,1.5416,1.5581,1.5556,1.5578,1.561,1.5775,1.5778,1.5782,1.5763,1.5767,1.577,0,0,0,0,0,0,1.4935,1.503,1.5043,1.5129,1.5189,1.5273,1.5312,1.5331,1.5395,1.5394,1.5447,1.5466,1.5544,1.5586,1.5557,1.5686,1.5678,1.5686,1.5656,1.566,1.5663,1.5651,1.5571,0,0,0,0,0,1.4938,1.5,1.508,1.5147,1.5177,1.5239,1.5278,1.5307,1.5372,1.5397,1.5453,1.5515,1.5581,1.5623,1.5688,1.5771,1.579,1.5804,1.5807,1.5809,1.5815,1.586,1.5866,1.5796,1.5796,1.5796,0,0,1.4947,1.5007,1.5043,1.5143,1.5194,1.5255,1.526,1.5326,1.5372,1.5408,1.5488,1.5531,1.5604,1.5686,1.5725,1.5723,1.5838,1.5813,1.5814,1.582,1.5864,1.5871,1.5877,1.5798,1.5798,1.5798,0,0,1.4994,1.5046,1.5107,1.5157,1.5232,1.5273,1.5287,1.5369,1.5398,1.5479,1.5506,1.5562,1.5675,1.5725,1.5766,1.583,1.5847,1.585,1.5865,1.5908,1.5913,1.5918,1.594,1.5947,1.5856,1.5856,1.5856,0,1.4996,1.509,1.5136,1.52,1.5243,1.5277,1.5339,1.5385,1.5478,1.5506,1.5503,1.5643,1.5695,1.5788,1.5804,1.5836,1.5853,1.584,1.5909,1.5914,1.592,1.5941,1.5949,1.5856,1.5856,1.5856,1.5856,0,1.5087,1.5152,1.5192,1.528,1.5327,1.539,1.5445,1.5488,1.5512,1.5553,1.5635,1.5698,1.5775,1.58,1.5825,1.5897,1.5893,1.5898,1.589,1.5925,1.5946,1.5954,1.5855,1.5855,1.5855,1.5856,0,0,1.5122,1.5233,1.5246,1.5286,1.5371,1.5422,1.5485,1.556,1.5595,1.5658,1.5711,1.5805,1.581,1.5856,1.5887,1.5925,1.597,1.5926,1.5929,1.593,1.605,1.6044,1.6053,1.5982,1.5984,1.5985,1.6043,0,1.5178,1.5292,1.5335,1.5428,1.5488,1.552,1.5575,1.5633,1.5673,1.5729,1.5774,1.5838,1.5841,1.5868,1.5908,1.5956,1.5994,1.5953,1.6032,1.6034,1.6011,1.6064,1.6058,1.611,1.6052,1.6053,1.6054,0,1.5259,1.5321,1.542,1.5496,1.5522,1.5571,1.5642,1.5696,1.5762,1.5788,1.5838,1.5866,1.5933,1.5922,1.6014,1.5985,1.602,1.6049,1.6052,1.606,1.6045,1.6072,1.6128,1.6135,1.6068,1.6067,1.6066,0,1.5272,1.538,1.5453,1.5486,1.5577,1.561,1.5649,1.5714,1.5755,1.5818,1.5845,1.5915,1.5952,1.6006,1.6052,1.6039,1.6139,1.6132,1.6162,1.6161,1.6181,1.6179,1.6242,1.6206,1.6206,1.6206,1.6205,0,1.5329,1.5388,1.5459,1.5504,1.557,1.5619,1.5683,1.5725,1.5782,1.5835,1.5868,1.5917,1.5975,1.6032,1.6068,1.6138,1.6156,1.6178,1.6187,1.6174,1.6171,1.6197,1.6194,1.6208,1.6207,1.6207,1.6206,0,1.5354,1.5405,1.5486,1.5565,1.5586,1.5631,1.5698,1.5743,1.5783,1.585,1.5868,1.5932,1.6,1.6051,1.614,1.6165,1.6238,1.6249,1.6216,1.622,1.6246,1.6242,1.6327,1.634,1.6296,1.6297,1.6297,0,1.5387,1.5432,1.5516,1.5553,1.5592,1.5652,1.5694,1.5744,1.5786,1.5864,1.5898,1.5968,1.6027,1.6133,1.6188,1.6255,1.6266,1.6291,1.6277,1.6262,1.6265,1.6261,1.6265,1.6293,1.6293,1.6293,1.6294,0,1.5438,1.5461,1.552,1.5588,1.5637,1.5693,1.575,1.5778,1.5838,1.5884,1.5953,1.5998,1.6088,1.6156,1.6229,1.627,1.6291,1.6298,1.6308,1.6295,1.6273,1.6284,1.6219,1.6295,1.6295,1.6295,1.6295,1.6295,1.5467,1.5509,1.5573,1.5638,1.5685,1.5737,1.5782,1.5827,1.5886,1.5962,1.5988,1.6058,1.6122,1.6222,1.6263,1.6319,1.6319,1.6335,1.6338,1.6341,1.6339,1.6265,1.6333,1.6333,1.6333,1.6333,1.6333,0,1.5519,1.5562,1.5621,1.5698,1.5749,1.5764,1.5827,1.5868,1.593,1.5988,1.6044,1.6122,1.6189,1.6248,1.6317,1.635,1.6362,1.6367,1.6364,1.6373,1.6335,1.6319,1.6356,1.6356,1.6356,1.6356,1.6356,1.6356,1.5552,1.5622,1.5652,1.5746,1.5788,1.5857,1.5892,1.5939,1.5985,1.6071,1.6126,1.6164,1.6222,1.6295,1.6356,1.6372,1.6395,1.6397,1.6415,1.6379,1.6376,1.6373,1.6357,1.6402,1.6402,1.6448,1.6448,1.6448]},{"header":{"parameterUnit":"m.s-1","parameterCategory":1,"la1":30.2991,"la2":30.254,"lo1":-89.0895,"lo2":-89.0444,"dy":0.0017,"dx":0.0017,"nx":28,"ny":28,"refTime":"2024-07-31T21:00:00:Z","depth":0,"parameterNumber":3,"parameterNumberName":"V-component_of_WINDS"},"data":[0,0,0,0,0,0,0,0,0,0,0,0,0,0,0,0,0,0,0,0,0,0,0,0,0,0,0,0,0,0,0,0,0,0,0,0,0,0,0,0,0,0,0,0,0,0,0,0,0,0,0,0,0,0,0,0,0,0,4.4339,4.4339,0,4.4323,4.4323,4.4322,4.4277,4.4276,4.4275,4.4274,4.4257,4.4258,4.4258,0,0,0,0,0,0,0,0,0,0,0,0,0,4.433,4.4331,4.4339,4.4339,4.4339,4.4323,4.4323,4.4322,4.4277,4.4276,4.4275,4.4273,4.4257,4.4258,4.4258,0,0,0,0,0,0,0,0,0,0,0,0,0,4.4326,4.4331,4.4339,4.4314,4.4312,4.4323,4.4323,4.4322,4.4277,4.4276,4.4274,4.4273,4.4257,4.4258,4.4258,4.4293,0,0,4.4261,4.4261,0,0,0,0,0,0,0,0,4.4326,4.4326,4.4318,4.4316,4.4313,4.43,4.4313,4.4312,4.4278,4.429,4.4274,4.4272,4.4273,4.4272,4.4272,4.4292,4.4291,4.4261,4.4261,4.4261,4.4262,0,0,0,0,0,0,0,4.4327,4.4327,4.4333,4.4318,4.4315,4.4304,4.4301,4.4313,4.429,4.4289,4.4286,4.4284,4.4271,4.4272,4.4272,4.4291,4.4261,4.4261,4.4262,4.4262,4.4336,4.4337,0,0,0,0,0,0,4.4331,4.4327,4.4333,4.4332,4.4316,4.4305,4.4302,4.4306,4.429,4.4286,4.4286,4.4282,4.4271,4.4271,4.4271,4.4308,4.4261,4.4262,4.4263,4.4334,4.4336,4.4338,0,0,0,0,0,0,4.4331,4.4332,4.4334,4.4329,4.4328,4.4307,4.4311,4.4306,4.4307,4.4287,4.4283,4.4291,4.427,4.427,4.4287,4.4307,4.4262,4.4263,4.4332,4.4335,4.4337,4.4384,0,0,0,0,0,0,4.4331,4.4332,4.4345,4.433,4.4329,4.4351,4.4312,4.4307,4.4308,4.4304,4.4291,4.4287,4.4269,4.4286,4.4288,4.4307,4.4264,4.433,4.4333,4.4336,4.4381,4.4388,4.4394,0,0,0,0,0,4.433,4.4359,4.4346,4.4347,4.4344,4.4352,4.4351,4.433,4.431,4.4323,4.431,4.4287,4.4305,4.4288,4.429,4.431,4.4329,4.4333,4.4336,4.4378,4.4386,4.4394,0,0,0,0,0,0,4.4377,4.4357,4.4341,4.4366,4.4361,4.4344,4.4359,4.434,4.434,4.4336,4.431,4.4307,4.4328,4.4321,4.4303,4.4341,4.4313,4.4317,4.4345,4.4353,4.4359,4.436,4.4264,0,0,0,0,0,4.4391,4.4399,4.438,4.4404,4.4402,4.4381,4.4384,4.4368,4.4361,4.4359,4.4347,4.4342,4.4346,4.4349,4.4352,4.438,4.4376,4.4394,4.4401,4.4407,4.441,4.4422,4.443,4.4349,4.4349,4.4349,0,0,4.4418,4.4408,4.4414,4.4413,4.4407,4.4415,4.438,4.439,4.4396,4.436,4.4375,4.4367,4.4359,4.4381,4.4391,4.4376,4.4431,4.4411,4.4415,4.4415,4.4427,4.4434,4.4441,4.4351,4.4351,4.435,0,0,4.4472,4.4465,4.4483,4.4478,4.447,4.4456,4.446,4.4446,4.4439,4.4454,4.4427,4.4433,4.4441,4.4436,4.4435,4.4486,4.4465,4.4488,4.4522,4.4535,4.4541,4.4546,4.4563,4.457,4.4492,4.4492,4.4492,0,4.4507,4.4518,4.4495,4.4507,4.4506,4.4475,4.4492,4.4489,4.4482,4.4482,4.4466,4.4475,4.4467,4.4487,4.45,4.45,4.4503,4.4489,4.4542,4.4547,4.4552,4.4567,4.4574,4.4495,4.4494,4.4494,4.4494,0,4.456,4.4569,4.4584,4.4578,4.4579,4.4594,4.4573,4.4577,4.4561,4.4549,4.4564,4.4554,4.4554,4.4558,4.4542,4.4575,4.4566,4.4547,4.4518,4.4563,4.4577,4.4583,4.4498,4.4497,4.4497,4.4496,0,0,4.4642,4.4623,4.4628,4.4624,4.4613,4.4618,4.4632,4.4631,4.4635,4.4631,4.4641,4.4648,4.463,4.4628,4.4612,4.4624,4.4663,4.4602,4.4602,4.4612,4.4696,4.471,4.4717,4.4649,4.465,4.4651,4.4696,0,4.4691,4.4712,4.4692,4.4716,4.4723,4.4693,4.4704,4.4698,4.4687,4.4691,4.4679,4.4684,4.466,4.4659,4.4669,4.4656,4.4679,4.4653,4.4657,4.4657,4.4658,4.4725,4.4739,4.4782,4.4702,4.4703,4.4704,0,4.4751,4.4749,4.4774,4.476,4.4762,4.4773,4.477,4.4774,4.4767,4.4758,4.4756,4.4736,4.4747,4.4721,4.4735,4.4718,4.4719,4.4713,4.4714,4.4712,4.4682,4.4723,4.4796,4.4801,4.4712,4.4712,4.4711,0,4.4805,4.481,4.4825,4.4823,4.4807,4.4815,4.4809,4.4799,4.48,4.4798,4.4798,4.4798,4.4797,4.4797,4.4777,4.476,4.4794,4.4766,4.4786,4.4786,4.4793,4.4792,4.4865,4.4797,4.4796,4.4796,4.4796,0,4.4861,4.4877,4.4849,4.4858,4.4875,4.4852,4.487,4.486,4.4853,4.4859,4.4834,4.4841,4.4816,4.4819,4.4805,4.4818,4.4819,4.4811,4.4806,4.4812,4.4813,4.4811,4.4807,4.4798,4.4798,4.4797,4.4797,0,4.4924,4.4906,4.492,4.4904,4.4901,4.4914,4.49,4.4907,4.4895,4.4903,4.4904,4.4884,4.4887,4.4869,4.4869,4.4858,4.4879,4.487,4.4881,4.4878,4.4898,4.4896,4.497,4.4978,4.4907,4.4908,4.4908,0,4.496,4.4971,4.4956,4.4959,4.4954,4.4958,4.4958,4.4936,4.4938,4.4929,4.4938,4.4939,4.4939,4.4945,4.4931,4.493,4.492,4.4947,4.492,4.4925,4.4919,4.4917,4.4918,4.4951,4.4952,4.4953,4.4954,0,4.5024,4.5015,4.5016,4.5015,4.5016,4.5013,4.5009,4.5013,4.4989,4.4991,4.4994,4.4994,4.4994,4.4995,4.4991,4.4985,4.4965,4.4962,4.4967,4.4972,4.4977,4.4973,4.4894,4.496,4.496,4.4959,4.4959,4.4959,4.5073,4.5082,4.5072,4.5074,4.5069,4.5066,4.5072,4.506,4.5062,4.5059,4.5047,4.5052,4.5043,4.5036,4.5032,4.5035,4.5022,4.5029,4.503,4.5032,4.5035,4.4978,4.5035,4.5034,4.5034,4.5034,4.5034,0,4.5135,4.5127,4.513,4.5125,4.5126,4.5108,4.5103,4.5105,4.511,4.5103,4.5103,4.5106,4.5107,4.5093,4.5092,4.5097,4.5088,4.5097,4.5096,4.5094,4.5047,4.5042,4.5105,4.5105,4.5105,4.5105,4.5105,4.5105,4.5167,4.518,4.5169,4.5179,4.5171,4.5176,4.5174,4.5171,4.5165,4.5169,4.517,4.5161,4.5151,4.5149,4.5149,4.5144,4.5145,4.5157,4.5149,4.5105,4.5098,4.5091,4.5087,4.5157,4.5158,4.5196,4.5197,4.5197]}]]